Pecos, TX

12:40 PM CST on January 17, 2017 (GMT -0600)
Pecos Municipal

Weather History for KPEQ - March, 2013

Change the Weather History Date:

Sunday, March 10, 2013

  Actual Average Record
Temperature  
Mean Temperature 46 °F -  
Max Temperature 56 °F 75 °F 90 °F (1939)
Min Temperature 36 °F 39 °F 21 °F (1915)
Degree Days  
Heating Degree Days 18    
Moisture  
Dew Point 17 °F    
Average Humidity 33    
Maximum Humidity 53    
Minimum Humidity 19    
Precipitation  
Precipitation 0.00 in - - ()
Sea Level Pressure  
Sea Level Pressure 30.11 in    
Wind  
Wind Speed 8 mph (NW)    
Max Wind Speed 18 mph    
Max Gust Speed 26 mph    
Visibility 10 miles    
Events      
Averages and records for this station are not official NWS values.
T = Trace of Precipitation, MM = Missing Value Source: NWS Daily Summary

Daily Weather History Graph

Daily Weather History Graph

Search for Another Location

Airport or City:

Trip Planner

Search our weather history database for the weather conditions in past years. The results will help you decide how hot, cold, wet, or windy it might be!

Date:

Astronomy

Mar. 10, 2013 Rise Set
Actual Time 8:09 AM CDT 7:58 PM CDT
Civil Twilight 7:45 AM CDT 8:23 PM CDT
Nautical Twilight 7:17 AM CDT 8:51 PM CDT
Astronomical Twilight 6:49 AM CDT 9:19 PM CDT
Moon 7:08 AM CDT (3/10) 7:09 PM CDT (3/10)
Length of Visible Light 12h 37m
Length of Day
11h 49m
Waning Crescent, 2% of the Moon is Illuminated
Mar 10
Waning Crescent
Mar 11
New
Mar 19
First Quarter
Mar 27
Full
Apr 2
Last Quarter

Hourly Weather History & Observations

Time (CDT) Temp. Windchill Dew Point Humidity Pressure Visibility Wind Dir Wind Speed Gust Speed Precip Events Conditions
12:15 AM 49.8 °F - 20.3 °F 31% 29.95 in 10.0 mi WNW 6.9 mph - N/A   Clear
12:35 AM 47.7 °F - 19.9 °F 33% 29.95 in 10.0 mi West 6.9 mph - N/A   Clear
12:55 AM 45.7 °F 41.5 °F 19.4 °F 35% 29.95 in 10.0 mi West 8.1 mph - N/A   Clear
1:15 AM 44.8 °F 40.4 °F 19.0 °F 36% 29.95 in 10.0 mi West 8.1 mph - N/A   Clear
1:35 AM 42.6 °F 38.4 °F 18.5 °F 38% 29.96 in 10.0 mi WSW 6.9 mph - N/A   Clear
1:55 AM 41.4 °F 36.8 °F 18.5 °F 40% 29.97 in 10.0 mi WSW 6.9 mph - N/A   Clear
3:15 AM 41.9 °F 39.0 °F 19.0 °F 40% 29.97 in 10.0 mi WSW 4.6 mph - N/A   Clear
3:35 AM 40.3 °F 38.2 °F 19.0 °F 43% 29.98 in 10.0 mi West 3.5 mph - N/A   Clear
3:55 AM 40.1 °F 36.1 °F 18.9 °F 43% 29.98 in 10.0 mi West 5.8 mph - N/A   Clear
4:15 AM 38.8 °F 30.4 °F 19.8 °F 46% 30.00 in 10.0 mi NNW 15.0 mph 20.7 mph N/A   Clear
4:35 AM 45.5 °F 41.8 °F 21.2 °F 38% 30.00 in 10.0 mi North 6.9 mph - N/A   Scattered Clouds
4:55 AM 43.9 °F 40.5 °F 21.2 °F 41% 30.01 in 10.0 mi NNW 5.8 mph - N/A   Clear
5:15 AM 42.8 °F 38.0 °F 21.7 °F 43% 30.02 in 10.0 mi NNW 8.1 mph - N/A   Clear
5:35 AM 41.2 °F 35.5 °F 21.6 °F 46% 30.03 in 10.0 mi NNW 9.2 mph - N/A   Clear
5:55 AM 39.2 °F 34.2 °F 21.2 °F 49% 30.04 in 10.0 mi North 6.9 mph - N/A   Clear
6:15 AM 42.6 °F 39.9 °F 21.9 °F 44% 30.05 in 10.0 mi NE 4.6 mph - N/A   Clear
7:35 AM 41.5 °F 38.6 °F 21.7 °F 45% 30.10 in 10.0 mi NW 4.6 mph - N/A   Mostly Cloudy
7:55 AM 38.3 °F 34.8 °F 22.1 °F 52% 30.12 in 10.0 mi WSW 4.6 mph - N/A   Mostly Cloudy
8:15 AM 37.6 °F 34.0 °F 21.9 °F 53% 30.13 in 10.0 mi West 4.6 mph - N/A   Overcast
8:35 AM 39.4 °F 37.2 °F 22.3 °F 50% 30.14 in 10.0 mi West 3.5 mph - N/A   Overcast
8:55 AM 39.6 °F - 22.8 °F 51% 30.15 in 10.0 mi Calm Calm - N/A   Overcast
9:15 AM 42.1 °F 36.6 °F 23.4 °F 48% 30.16 in 10.0 mi North 9.2 mph - N/A   Overcast
9:35 AM 44.2 °F 39.7 °F 23.0 °F 43% 30.17 in 10.0 mi North 8.1 mph - N/A   Overcast
9:55 AM 45.3 °F 39.0 °F 22.8 °F 41% 30.18 in 10.0 mi North 13.8 mph - N/A   Overcast
10:15 AM 45.9 °F 39.7 °F 21.2 °F 38% 30.18 in 10.0 mi NNE 13.8 mph 21.9 mph N/A   Overcast
10:35 AM 46.9 °F - 21.0 °F 36% 30.19 in 10.0 mi North 17.3 mph 21.9 mph N/A   Overcast
11:35 AM 48.4 °F - 14.0 °F 25% 30.20 in 10.0 mi North 17.3 mph 26.5 mph N/A   Clear
11:55 AM 49.1 °F - 13.5 °F 24% 30.20 in 10.0 mi North 18.4 mph 23.0 mph N/A   Clear
12:15 PM 49.6 °F - 14.0 °F 24% 30.19 in 10.0 mi NNE 12.7 mph 18.4 mph N/A   Clear
12:35 PM 50.2 °F - 14.7 °F 24% 30.19 in 10.0 mi NNE 12.7 mph 23.0 mph N/A   Clear
12:55 PM 50.5 °F - 15.4 °F 25% 30.18 in 10.0 mi NE 4.6 mph 16.1 mph N/A   Clear
1:35 PM 51.6 °F - 14.7 °F 23% 30.17 in 10.0 mi North 11.5 mph - N/A   Clear
1:55 PM 52.9 °F - 15.6 °F 23% 30.16 in 10.0 mi NW 13.8 mph 19.6 mph N/A   Clear
2:15 PM 53.2 °F - 15.4 °F 22% 30.15 in 10.0 mi North 9.2 mph 16.1 mph N/A   Clear
2:35 PM 53.4 °F - 14.9 °F 22% 30.13 in 10.0 mi NNW 11.5 mph 17.3 mph N/A   Clear
3:15 PM 54.3 °F - 14.4 °F 21% 30.12 in 10.0 mi North 5.8 mph - N/A   Clear
3:35 PM 54.5 °F - 14.0 °F 20% 30.11 in 10.0 mi North 5.8 mph 19.6 mph N/A   Clear
4:15 PM 55.6 °F - 14.7 °F 20% 30.10 in 10.0 mi WNW 10.4 mph - N/A   Clear
4:35 PM 56.1 °F - 14.9 °F 20% 30.10 in 10.0 mi WNW 5.8 mph 16.1 mph N/A   Clear
4:55 PM 56.7 °F - 15.1 °F 20% 30.10 in 10.0 mi North 8.1 mph - N/A   Clear
5:35 PM 55.6 °F - 14.5 °F 20% 30.10 in 10.0 mi NNW 4.6 mph - N/A   Scattered Clouds
5:55 PM 56.3 °F - 14.7 °F 19% 30.10 in 10.0 mi NNW 11.5 mph - N/A   Scattered Clouds
6:35 PM 56.1 °F - 14.9 °F 20% 30.09 in 10.0 mi NW 12.7 mph - N/A   Scattered Clouds
7:15 PM 55.0 °F - 14.7 °F 20% 30.11 in 10.0 mi NW 8.1 mph - N/A   Clear
7:35 PM 54.3 °F - 15.6 °F 22% 30.12 in 10.0 mi WNW 9.2 mph - N/A   Clear
8:15 PM 50.5 °F - 15.8 °F 25% 30.14 in 10.0 mi NW 6.9 mph - N/A   Clear
8:35 PM 49.6 °F - 15.4 °F 26% 30.15 in 10.0 mi NW 8.1 mph - N/A   Clear
9:15 PM 47.3 °F - 15.1 °F 28% 30.17 in 10.0 mi NW 6.9 mph - N/A   Scattered Clouds
9:35 PM 46.4 °F 43.5 °F 15.6 °F 29% 30.18 in 10.0 mi NW 5.8 mph - N/A   Mostly Cloudy
10:15 PM 44.4 °F 42.9 °F 15.4 °F 31% 30.18 in 10.0 mi WNW 3.5 mph - N/A   Mostly Cloudy
10:35 PM 41.5 °F - 14.9 °F 34% 30.18 in 10.0 mi Calm Calm - N/A   Scattered Clouds
10:55 PM 40.6 °F 38.6 °F 14.5 °F 35% 30.18 in 10.0 mi West 3.5 mph - N/A   Scattered Clouds
11:15 PM 39.9 °F - 13.5 °F 34% 30.19 in 10.0 mi Calm Calm - N/A   Scattered Clouds
11:35 PM 37.9 °F 33.5 °F 13.6 °F 37% 30.19 in 10.0 mi West 5.8 mph - N/A   Clear
12:15 AM 37.6 °F 32.3 °F 13.8 °F 38% 30.19 in 10.0 mi South 6.9 mph - N/A   Clear
12:35 AM 37.6 °F 33.1 °F 12.7 °F 36% 30.19 in 10.0 mi South 5.8 mph - N/A   Clear
12:55 AM 36.0 °F 31.1 °F 12.6 °F 38% 30.19 in 10.0 mi South 5.8 mph - N/A   Clear